www.pogodaiklimat.ru

Погода и климат >> Архив погоды >> Колумбия >> Villavicencio


ПОГОДА в Villavicencio

  • Прогноз погоды в Villavicencio
  • Монитор погоды в Villavicencio
  • Климат города

АРХИВ ПОГОДЫ в Villavicencio

Время (UTC), дата Ветер
(напр.,м/с)
 
Видим.   Явления Облачность Т
(С)
Тd
(С)
f
(%)
Тe
(С)
Тes
(С)
Комфортность P
(гПа)
Po
(гПа)
Тmin
(С)
Tmax
(С)
R
(мм)
R24
(мм)
S
(см)
00 7.12 СЗ 2 12 км 9/3 600 м
[Sc Ac trans Ci sp]
+26.2 +21.2 74 +33 +33 очень
душно
1010.0 961.1 +29.2
12 7.12 штиль 0 12 км 6/6 600 м
[Sc Ac trans]
+22.0 +19.7 87 +28 +28 душно 1014.0 964.7 +20.7 10
15 7.12 штиль 0 12 км 1/1 600 м
[Sc Ci fib]
+29.0 +20.6 61 +36 +52 опасность
солнечного
удара
1015.0 965.4
18 7.12 В 4 12 км 4/4 600 м
[Cu hum]
+30.6 +19.0 50 +36 +42 очень
душно
1012.0 962.7
21 7.12 В 3 12 км 5/5 600 м
[Sc]
+30.6 +19.9 53 +37 +38 очень
душно
1009.0 960.1
00 8.12 СЗ 2 12 км 6/4 600 м
[Sc Ac As Ci sp]
+25.0 +20.8 78 +31 +31 очень
душно
1011.0 961.7 +31.2
12 8.12 З 2 12 км 9/1 600 м
[Sc Ac As Ci sp]
+22.8 +20.8 88 +30 +30 очень
душно
1014.0 964.3 +21.4
15 8.12 В 2 12 км 8/1 600 м
[Sc Ac As Ci fib]
+27.8 +21.4 68 +35 +43 очень
душно
1015.0 965.6
18 8.12 СВ 2 12 км 8/6 600 м
[Sc Ci fib]
+29.8 +19.9 55 +36 +42 очень
душно
1012.0 962.7
21 8.12 штиль 0 12 км 5/4 600 м
[Sc Ci fib]
+28.4 +20.2 61 +35 +38 очень
душно
1009.0 960.1
12 9.12 штиль 0 12 км 9/6 600 м
[St Ac trans]
+22.7 +20.0 85 +29 +30 очень
душно
1013.0 963.6 +21.1
15 9.12 штиль 0 12 км 3/3 600 м
[Sc]
+28.5 +20.0 60 +35 +47 очень
душно
1014.0 964.8
21 9.12 В 3 12 км 5/4 600 м
[Sc Ac As Ci fib]
+30.8 +20.2 53 +37 +39 очень
душно
1009.0 959.8
00 10.12 З 2 12 км 8/4 600 м
[Sc Ac As Ci fib]
+26.4 +21.1 73 +33 +33 очень
душно
1010.0 960.5 +31.6
12 10.12 З 2 12 км 9/5 600 м
[Sc Ac As Ci fib]
+23.2 +21.5 90 +31 +32 очень
душно
1013.0 964.0 +22.2
15 10.12 СВ 3 12 км 9/3 600 м
[Sc Ac As Ci fib]
+26.4 +22.3 78 +34 +39 очень
душно
1015.0 965.2
18 10.12 В 3 12 км 6/5 600 м
[Sc Ac trans Ci fib]
+29.6 +20.4 58 +36 +42 очень
душно
1012.0 962.6
21 10.12 З 2 10 км слабая морось {дождь} 8/4 600 м
[Sc Ac trans Ci sp]
+24.8 +19.9 74 +30 +32 душно 1010.0 960.6
12 11.12 штиль 0 12 км 10/1 600 м
[Sc Ac As Ci sp]
+23.6 +20.8 84 +29 +30 душно 1014.0 964.7 +21.5 3
15 11.12 СЗ 2 12 км 8/1 700 м
[Sc Ac trans Ci sp]
+28.4 +20.9 64 +36 +43 очень
душно
1016.0 966.6
18 11.12 С 3 12 км 8/4 600 м
[Sc Ac As Ci fib]
+29.4 +18.8 53 +35 +40 очень
душно
1013.0 964.0
21 11.12 СВ 2 12 км 9/4 600 м
[Sc Ac As Ci fib]
+28.6 +20.2 60 +35 +36 очень
душно
1010.0 961.2
00 12.12 СЗ 2 12 км 8/1 600 м
[Sc Ac As Ci fib]
+25.0 +20.2 75 +31 +31 очень
душно
1011.0 961.7 +30.5
12 12.12 З 2 12 км 9/1 600 м
[Sc Ac As Ci fib]
+23.2 +20.4 84 +30 +31 очень
душно
1013.0 964.0 +22.4
18 12.12 З 1 12 км 8/1 600 м
[Sc Ac trans Ci sp]
+28.8 +19.7 58 +35 +45 очень
душно
1012.0 962.7
21 12.12 штиль 0 12 км 4/1 600 м
[Sc Ac trans Ci fib]
+30.2 +19.1 51 +36 +39 очень
душно
1009.0 959.7
12 13.12 З 2 12 км морось {дождь} 10/6 600 м
[Sc Ac As]
+21.0 +20.2 95 +27 +27 душно 1015.0 965.6 +20.0 19
15 13.12 штиль 0 12 км {морось} 8/3 600 м
[Sc Ac trans Ci sp]
+26.6 +21.6 74 +34 +42 очень
душно
1014.0 965.0
18 13.12 СВ 2 12 км {морось} 9/4 600 м
[Sc Ac As Ci fib]
+29.4 +21.3 62 +37 +43 очень
душно
1012.0 962.7 1
21 13.12 СВ 2 12 км смерч (торнадо) {гроза} 9/5 540 м
[Cb cap Ac As Ci fib]
+29.2 +21.5 63 +37 +38 очень
душно
1009.0 959.8

 

Местоположение метеостанции Villavicencio (Колумбия): широта 4.17 долгота -73.61 высота над уровнем моря 431 м.

В архиве по умолчанию представлена погода в Villavicencio за последнюю неделю. Архивные данные за месяц целиком и за предыдущие месяцы, начиная с января 2011 года, Вы можете получить, выбрав интересующий диапазон дат из раскрывающегося списка и нажав кнопку "Ввод!".


*Определитесь, кто Вы:
робот инопланетянин человек

Внимание! Время в таблицах - всемирное. Для получения местного времени необходимо прибавить поправку, которая в Villavicencio равна -5 ч.

Смотрите также архив погоды в соседних городах и на ближайших метеорологических станциях:

Погода в Bogota (Колумбия) (82 км)
Погода в Ibague (Колумбия) (173 км)
Погода в Neiva (Колумбия) (230 км)
Погода в Armenia (Колумбия) (236 км)
Погода в Pereira (Колумбия) (246 км)
Погода в Rionegro (Колумбия) (297 км)
Погода в Cali (Колумбия) (315 км)
Погода в Medellin (Колумбия) (317 км)
Погода в Barrancabermeja (Колумбия) (318 км)
Погода в Bucaramanga (Колумбия) (329 км)

Пояснения к столбцам:

Ветер - указаны скорость ветра в м/с - средняя за 10 мин, порывы в срок и между сроками (в фигурных скобках) и направление, откуда дует ветер: С - северный, СВ - северо-восточный, В - восточный, ЮВ - юго-восточный, Ю - южный, ЮЗ - юго-западный, З - западный, СЗ - северо-западный.
Видимость - горизонтальная дальность видимости в метрах или километрах. При видимости от 1 до 10 км при отсутствии осадков обычно наблюдается дымка, при ухудшении видимости до 1 км и менее - туман. В сухую погоду видимость может ухудшаться дымом, пылью или мглою.
Явления - указаны атмосферные явления, наблюдавшиеся в срок или в последний час перед сроком; фигурными скобками обозначены явления, наблюдавшиеся между сроками (за 1-3 часа до срока); квадратными скобками обозначены град или гололедные отложения с указанием их диаметра в мм.
Облачность - указаны через наклонную черту общая и нижняя облачность в баллах и высота нижней границы облаков в метрах; квадратными скобками обозначены формы облаков: Ci - перистые, Cs - перисто-слоистые, Cc - перисто-кучевые, Ac - высококучевые, As - высокослоистые, Sc - слоисто-кучевые, Ns - слоисто-дождевые, Cu - кучевые, Cb - кучево-дождевые. Подробнее классификацию облаков см. в Атласе облаков (PDF).
T - Температура воздуха - температура, измеренная на высоте 2 м над землей.
Td - Температура точки росы - температура, при понижении до которой содержащийся в воздухе водяной пар достигнет насыщения.
f - Относительная влажность воздуха - влажноcть воздуха, измеренная на высоте 2 м над землей.
Te - Эффективная температура - температура, которую ощущает одетый по сезону человек в тени. Характеристика душности погоды. При расчете учитывается влияние влажности воздуха и скорости ветра на теплоощущения человека.
Tes - Эффективная температура на солнце - температура, которую ощущает человек, с поправкой на солнечный нагрев. Характеристика знойности погоды. Зависит от высоты солнца над горизонтом, облачности и скорости ветра. Ночью, в пасмурную погоду, а также при ветре 12 м/с и более поправка равна нулю.
P - Атмосферное давление - приведенное к уровню моря атмосферное давление.
Po - Атмосферное давление - измеренное на уровне метеостанции атмосферное давление.
Tmin - Минимальная температура - минимум температуры воздуха на высоте 2 м над землей.
Tmax - Максимальная температура - максимум температуры воздуха на высоте 2 м над землей.
R - Количество осадков - Количество выпавших осадков за период времени, мм. При наведении курсора мыши на число - период времени, за который выпало указанное количество осадков.
R24 - Количество осадков - Количество выпавших осадков за 24 часа, мм.
S - Снежный покров - Высота снежного покрова, см. При наведении курсора мыши на число - состояние снежного покрова и степень покрытия местности в баллах.